Regional Weather Roundup
Issued by NWS

Home | Current Version | Previous Version | Text Only | Print | Product List | Glossary Off
Versions: 1 2 3 4 5 6 7 8 9 10 11 12 13 14 15 16 17 18 19 20 21 22 23 24 25 26 27 28 29 30 31 32 33 34 35 36 37 38 39 40 41 42 43 44 45 46 47 48 49 50

000
ASUS43 KMKX 011600
RWRWI

WISCONSIN REGIONAL WEATHER ROUNDUP
NATIONAL WEATHER SERVICE MILWAUKEE/SULLIVAN WI
1100 AM CDT SAT AUG 01 2015

NOTE: "FAIR" INDICATES FEW OR NO CLOUDS BELOW 12,000 FEET WITH NO
SIGNIFICANT WEATHER AND/OR OBSTRUCTIONS TO VISIBILITY.

WIZ001-002-006>008-014>016-023>028-011700-
NORTHWEST WISCONSIN

CITY           SKY/WX    TMP DP  RH WIND       PRES   REMARKS
SUPERIOR ARPT  SUNNY     75  56  51 W9        29.91S
ASHLAND        SUNNY     75  55  49 NW10      29.92S
HAYWARD        SUNNY     75  51  43 VRB7      29.95S
SIREN          SUNNY     75  54  49 W6        29.96R
CUMBERLAND     SUNNY     72  52  49 W6        29.97S
RICE LAKE      SUNNY     74  52  45 W6        29.98S
CHETEK         SUNNY     75  53  46 CALM      29.96S
LADYSMITH      SUNNY     74  52  44 W9        29.98S
EAU CLAIRE     SUNNY     77  53  43 W3        29.96S
MENOMONIE      SUNNY     76  55  47 SE3       29.97F
NEW RICHMOND   SUNNY     77  53  43 SW5       29.97S
OSCEOLA        SUNNY     76  57  51 SW5       29.99S
$$

WIZ003>005-009-010-017-018-011700-
NORTH CENTRAL WISCONSIN

CITY           SKY/WX    TMP DP  RH WIND       PRES   REMARKS
MANITOWISH WTR SUNNY     70  55  57 NW12      29.94S
ARBOR VITAE    MOSUNNY   72  58  60 NW10      29.94S
WOODRUFF       MOSUNNY   72  58  60 NW10      29.94S
RHINELANDER    SUNNY     72  54  53 NW8       29.96S
EAGLE RIVER    PTSUNNY   69  50  50 NW8       29.93S
LAND O LAKES   PTSUNNY   72  50  47 NW9G17    29.94R
PHILLIPS       SUNNY     71  54  56 NW7       29.95F
TOMAHAWK       SUNNY     70  54  56 NW9       29.96S
MEDFORD        SUNNY     72  52  50 NW9       29.96F
MERRILL        NOT AVBL
$$

WIZ029-030-035-036-043>047-011700-
CENTRAL WISCONSIN

CITY           SKY/WX    TMP DP  RH WIND       PRES   REMARKS
WAUSAU         SUNNY     76  48  37 NW13G22   29.94S
MOSINEE        MOSUNNY   73  50  43 NW13G21   29.98R
MARSHFIELD     MOSUNNY   76  48  37 N13       29.97S
STEVENS POINT  MOSUNNY   74  51  44 NW6       29.97S
WAUPACA        SUNNY     78  49  35 W9        29.95F
WAUTOMA        NOT AVBL
WISC RAPIDS    MOSUNNY   78  50  37 NW8       29.98S
CAMP DOUGLAS   NOT AVBL
$$

WIZ011>013-019>022-031-037>040-048>050-011700-
NORTHEAST WISCONSIN

CITY           SKY/WX    TMP DP  RH WIND       PRES   REMARKS
ANTIGO         SUNNY     69  55  60 W13       29.95S
SHAWANO        SUNNY     75  54  47 NW10G17   29.93S
OCONTO         SUNNY     76  55  48 NW9       29.90R
STURGEON BAY   SUNNY     73  54  49 W13       29.93R
GREEN BAY      SUNNY     76  54  46 NW14      29.92S
MANITOWOC      NOT AVBL
APPLETON       MOSUNNY   75  46  35 NW12      29.95S
CLINTONVILLE   SUNNY     75  46  35 NW13      29.93F
OSHKOSH        MOSUNNY   77  51  40 NW12      29.95R
$$

WIZ032>034-041-042-053>061-011700-
SOUTHWEST WISCONSIN

CITY           SKY/WX    TMP DP  RH WIND       PRES   REMARKS
LA CROSSE      SUNNY     79  57  46 W3        29.97R HX  80
SPARTA         SUNNY     78  50  37 CALM      29.98S
VIROQUA        SUNNY     76  60  57 W3        30.00S
BOSCOBEL       SUNNY     81  63  54 SW8       29.98S HX  82
PRAIRIE DU CHI SUNNY     80  61  52 SW9       29.98F HX  81
PLATTEVILLE    PTSUNNY   76  64  65 SW9       30.00F
$$

WIZ056-057-062-063-064-067-068-011700-
SOUTH CENTRAL WISCONSIN

CITY           SKY/WX    TMP DP  RH WIND       PRES   REMARKS
REEDSBURG      PTSUNNY   75  55  49 CALM      29.98S
BARABOO/DELLS  CLOUDY    74  50  42 CALM      29.98S
LONE ROCK      NOT AVBL
MINERAL POINT  MOSUNNY   79  61  53 SW8       30.01S HX  80
MADISON        PTSUNNY   76  59  55 CALM      29.99R
MIDDLETON      PTSUNNY   77  58  52 W5        30.00S
WATERTOWN      PTSUNNY   71  60  68 CALM      29.99R
MONROE         SUNNY     77  59  53 W8        30.00S
JANESVILLE     PTSUNNY   81  57  44 W9        29.99R HX  81
$$

WIZ051-052-058>065-066-070>072-011700-
SOUTHEAST WISCONSIN

CITY           SKY/WX    TMP DP  RH WIND       PRES   REMARKS
MILWAUKEE      PTSUNNY   80  51  36 NW13      29.96S HX  80
WAUKESHA       MOSUNNY   70  55  60 W13       30.02R
MILWAUKEE/TIMM PTSUNNY   75  52  43 W10       29.98R
RACINE         SUNNY     80  53  39 NW10      29.98S HX  80
BURLINGTON     MOSUNNY   76  55  47 W5        29.98S
KENOSHA        SUNNY     80  58  46 NW9       29.98S HX  80
FOND DU LAC    MOSUNNY   78  52  40 W14       29.96R
SHEBOYGAN      MOSUNNY   78  52  40 W10       29.94S
WEST BEND      PTSUNNY   75  50  41 W9        29.97R
JUNEAU         CLOUDY    70  59  69 W6        29.99R
$$

LSZ147-162-011700-
LAKE SUPERIOR

STATION/POSITION TIME  TEMP    WIND        PRES    WAVE
                       AIR SEA DIR/SP/G            HT/PER
                 (UTC) (F)     (DEG/KT/KT) (MB)    (FT/S)
W MID LAKE BUOY  1450   57 54  240/ 12/ 14 1011.5F   1/ 3
DEVILS ISLAND    1500   62     250/ 14/ 17 1012.3F
PORT WING        1500   68     260/  7/ 11 1013.2
SAXON HARBOR     1500   71                 1012.5F
$$

LMZ867-665-643>646-011700-
LAKE MICHIGAN

STATION/POSITION TIME  TEMP    WIND        PRES    WAVE
                       AIR SEA DIR/SP/G            HT/PER
                 (UTC) (F)     (DEG/KT/KT) (MB)    (FT/S)
CHAMBERS ISLAND  1500   71     250/  3/  7 1012.2R
S GREEN BAY BUOY 1500   65 69  240/  8/  8 1014.0
N MID LAKE BUOY  1450   65 68  270/ 10/ 12 1011.2F   1/ 3
NORTHPORT PIER   1500   68     310/  8/ 11 1011.9S
SISTER BAY       1429   74     300/  6/  7   N/A
ALGOMA LAKESHORE 1512          270/  9/ 14   N/A
KEWAUNEE LAKESHO 1500   72     280/  7/ 11 1012.3S
SHEBOYGAN LAKESH 1500   74     290/  9/ 11 1013.7F
PORT WASHINGTON  1500   78     280/  7/ 10 1014.6F
ATWATER BUOY     1500   69 65  280/  4/  6 1015.9S
MILWAUKEE LAKESH 1500   75     300/  6/  9   N/A
KENOSHA   LAKESH 1500   76     280/  6/  9 1014.6S
$$

TC  - TEMPERATURE IN CELSIUS
VSB - VISIBILITY IN STATUTE MILES
WCI - WIND CHILL INDEX
HX  - HEAT INDEX




USA.gov is the U.S. government's official web portal to all federal, state and local government web resources and services.